When you browse on this site, cookies collect data to enhance your experience and personalize the content and advertising you see.
Visit our Privacy Policy to learn more. By continuing to use the site, you agree to this use of cookies and data.
  • în România
  • Lista ţărilor
  • Pe 7 zile
  • Temperatura apei
  • Hartă satelitară
  • Meteo pe hartă
  • Widget-uri
  • user-avatar
    Intrare

    Meteo pe oră la Barcelona

    Astăzi, 19 Februarie, Marţi

    Timp Temperatura Precipitaţii Vânt Presiune Umiditate
    00:00 +27°C° 0 mm 4 m/s 761 mmHg 71%
    01:00 +26°C° 0 mm 4 m/s 761 mmHg 72%
    02:00 +26°C° 0 mm 3 m/s 760 mmHg 74%
    03:00 +25°C° 0 mm 3 m/s 760 mmHg 75%
    04:00 +25°C° 0 mm 2 m/s 760 mmHg 77%
    05:00 +25°C° 0 mm 2 m/s 760 mmHg 79%
    06:00 +26°C° 0 mm 2 m/s 760 mmHg 73%
    07:00 +27°C° 0 mm 2 m/s 761 mmHg 68%
    08:00 +29°C° 0 mm 1 m/s 761 mmHg 62%
    09:00 +32°C° 0 mm 2 m/s 761 mmHg 53%
    10:00 +36°C° 0 mm 2 m/s 761 mmHg 44%
    11:00 +40°C° 0 mm 3 m/s 761 mmHg 34%
    12:00 +38°C° 0 mm 4 m/s 761 mmHg 37%
    13:00 +37°C° 0 mm 5 m/s 760 mmHg 41%
    14:00 +36°C° 0 mm 5 m/s 759 mmHg 44%
    15:00 +35°C° 0 mm 6 m/s 759 mmHg 46%
    16:00 +35°C° 0 mm 6 m/s 758 mmHg 49%
    17:00 +34°C° 0 mm 7 m/s 758 mmHg 51%
    18:00 +33°C° 0 mm 7 m/s 758 mmHg 56%
    19:00 +30°C° 0 mm 6 m/s 759 mmHg 62%
    20:00 +29°C° 0 mm 6 m/s 759 mmHg 67%
    21:00 +29°C° 0 mm 6 m/s 759 mmHg 69%
    22:00 +28°C° 0 mm 6 m/s 760 mmHg 70%
    23:00 +28°C° 0 mm 5 m/s 760 mmHg 71%

    Mâine, 20 Februarie, Miercuri

    Timp Temperatura Precipitaţii Vânt Presiune Umiditate
    00:00 +27°C° 0 mm 5 m/s 760 mmHg 73%
    01:00 +27°C° 0 mm 5 m/s 760 mmHg 75%
    02:00 +26°C° 0 mm 4 m/s 759 mmHg 77%
    03:00 +26°C° 0 mm 4 m/s 759 mmHg 79%
    04:00 +25°C° 0 mm 3 m/s 759 mmHg 80%
    05:00 +25°C° 0 mm 3 m/s 759 mmHg 81%
    06:00 +26°C° 0 mm 3 m/s 760 mmHg 75%
    07:00 +27°C° 0 mm 2 m/s 760 mmHg 68%
    08:00 +28°C° 0 mm 2 m/s 761 mmHg 62%
    09:00 +32°C° 0 mm 2 m/s 761 mmHg 52%
    10:00 +36°C° 0 mm 2 m/s 761 mmHg 42%
    11:00 +39°C° 0 mm 2 m/s 761 mmHg 32%
    12:00 +39°C° 0 mm 3 m/s 760 mmHg 33%
    13:00 +38°C° 0 mm 4 m/s 759 mmHg 33%
    14:00 +39°C° 0 mm 5 m/s 758 mmHg 34%
    15:00 +37°C° 0 mm 5 m/s 758 mmHg 37%
    16:00 +35°C° 0 mm 6 m/s 757 mmHg 41%
    17:00 +34°C° 0 mm 6 m/s 757 mmHg 44%
    18:00 +33°C° 0 mm 7 m/s 757 mmHg 50%
    19:00 +30°C° 0 mm 7 m/s 757 mmHg 55%
    20:00 +28°C° 0 mm 7 m/s 758 mmHg 61%
    21:00 +28°C° 0 mm 6 m/s 758 mmHg 63%
    22:00 +28°C° 0 mm 6 m/s 759 mmHg 65%
    23:00 +27°C° 0 mm 6 m/s 759 mmHg 67%

    Poimâine, 21 Februarie, Joi

    Timp Temperatura Precipitaţii Vânt Presiune Umiditate
    00:00 +27°C° 0 mm 5 m/s 759 mmHg 68%
    01:00 +27°C° 0 mm 5 m/s 759 mmHg 69%
    02:00 +27°C° 0 mm 5 m/s 759 mmHg 71%
    03:00 +26°C° 0 mm 4 m/s 759 mmHg 73%
    04:00 +25°C° 0 mm 4 m/s 759 mmHg 75%
    05:00 +25°C° 0 mm 3 m/s 759 mmHg 78%
    06:00 +26°C° 0 mm 3 m/s 760 mmHg 72%
    07:00 +27°C° 0 mm 2 m/s 760 mmHg 67%
    08:00 +29°C° 0 mm 2 m/s 761 mmHg 61%
    09:00 +31°C° 0 mm 3 m/s 761 mmHg 53%
    10:00 +35°C° 0 mm 3 m/s 761 mmHg 44%
    11:00 +38°C° 0 mm 4 m/s 761 mmHg 35%
    12:00 +37°C° 0 mm 4 m/s 760 mmHg 39%
    13:00 +35°C° 0 mm 5 m/s 759 mmHg 43%
    14:00 +34°C° 0 mm 6 m/s 758 mmHg 46%
    15:00 +34°C° 0 mm 6 m/s 758 mmHg 47%
    16:00 +34°C° 0 mm 6 m/s 758 mmHg 47%
    17:00 +34°C° 0 mm 7 m/s 757 mmHg 47%
    18:00 +33°C° 0 mm 6 m/s 758 mmHg 52%
    19:00 +30°C° 0 mm 6 m/s 758 mmHg 57%
    20:00 +29°C° 0 mm 6 m/s 759 mmHg 62%
    21:00 +28°C° 0 mm 5 m/s 759 mmHg 66%
    22:00 +27°C° 0 mm 5 m/s 760 mmHg 69%
    23:00 +27°C° 0 mm 4 m/s 760 mmHg 72%

    22 Februarie, Vineri

    Timp Temperatura Precipitaţii Vânt Presiune Umiditate
    00:00 +26°C° 0 mm 4 m/s 760 mmHg 73%
    01:00 +26°C° 0 mm 3 m/s 759 mmHg 74%
    02:00 +25°C° 0 mm 2 m/s 759 mmHg 76%
    03:00 +25°C° 0 mm 2 m/s 759 mmHg 76%
    04:00 +24°C° 0 mm 2 m/s 759 mmHg 77%
    05:00 +24°C° 0 mm 1 m/s 759 mmHg 77%
    06:00 +25°C° 0 mm 1 m/s 760 mmHg 71%
    07:00 +27°C° 0 mm 1 m/s 760 mmHg 65%
    08:00 +28°C° 0 mm 1 m/s 761 mmHg 58%
    09:00 +32°C° 0 mm 1 m/s 761 mmHg 49%
    10:00 +36°C° 0 mm 2 m/s 761 mmHg 39%
    11:00 +40°C° 0 mm 3 m/s 761 mmHg 29%
    12:00 +40°C° 0 mm 4 m/s 761 mmHg 30%
    13:00 +40°C° 0 mm 5 m/s 760 mmHg 31%
    14:00 +40°C° 0 mm 6 m/s 759 mmHg 33%
    15:00 +38°C° 0 mm 6 m/s 758 mmHg 36%
    16:00 +36°C° 0 mm 7 m/s 758 mmHg 40%
    17:00 +35°C° 0 mm 7 m/s 758 mmHg 44%
    18:00 +33°C° 0 mm 7 m/s 758 mmHg 50%
    19:00 +32°C° 0 mm 7 m/s 759 mmHg 56%
    20:00 +29°C° 0 mm 6 m/s 760 mmHg 61%
    21:00 +28°C° 0 mm 6 m/s 760 mmHg 65%
    22:00 +27°C° 0 mm 5 m/s 760 mmHg 68%
    23:00 +27°C° 0 mm 5 m/s 761 mmHg 71%

    23 Februarie, Sâmbătă

    Timp Temperatura Precipitaţii Vânt Presiune Umiditate
    00:00 +26°C° 0 mm 4 m/s 760 mmHg 73%
    01:00 +25°C° 0 mm 4 m/s 760 mmHg 74%
    02:00 +24°C° 0 mm 3 m/s 760 mmHg 76%
    03:00 +24°C° 0 mm 3 m/s 760 mmHg 76%
    04:00 +24°C° 0 mm 2 m/s 760 mmHg 75%
    05:00 +23°C° 0 mm 2 m/s 760 mmHg 75%
    06:00 +25°C° 0 mm 2 m/s 760 mmHg 69%
    07:00 +26°C° 0 mm 2 m/s 761 mmHg 63%
    08:00 +28°C° 0 mm 2 m/s 761 mmHg 58%
    09:00 +31°C° 0 mm 3 m/s 762 mmHg 51%
    10:00 +34°C° 0 mm 3 m/s 762 mmHg 45%
    11:00 +37°C° 0 mm 4 m/s 762 mmHg 39%
    12:00 +36°C° 0 mm 4 m/s 761 mmHg 44%
    13:00 +34°C° 0 mm 5 m/s 760 mmHg 49%
    14:00 +33°C° 0 mm 5 m/s 759 mmHg 54%
    15:00 +32°C° 0 mm 5 m/s 759 mmHg 56%
    16:00 +32°C° 0 mm 5 m/s 758 mmHg 57%
    17:00 +32°C° 0 mm 6 m/s 758 mmHg 58%
    18:00 +30°C° 0 mm 6 m/s 758 mmHg 60%
    19:00 +30°C° 0 mm 6 m/s 759 mmHg 62%
    20:00 +29°C° 0 mm 6 m/s 759 mmHg 64%
    21:00 +28°C° 0 mm 6 m/s 760 mmHg 67%
    22:00 +27°C° 0 mm 5 m/s 760 mmHg 69%
    23:00 +27°C° 0 mm 5 m/s 760 mmHg 72%

    24 Februarie, Duminică

    Timp Temperatura Precipitaţii Vânt Presiune Umiditate
    00:00 +26°C° 0 mm 5 m/s 760 mmHg 75%
    01:00 +25°C° 0 mm 4 m/s 760 mmHg 77%
    02:00 +25°C° 0 mm 3 m/s 759 mmHg 79%
    03:00 +24°C° 0 mm 3 m/s 759 mmHg 80%
    04:00 +23°C° 0 mm 2 m/s 759 mmHg 80%
    05:00 +23°C° 0 mm 2 m/s 759 mmHg 81%
    06:00 +24°C° 0 mm 1 m/s 760 mmHg 74%
    07:00 +26°C° 0 mm 1 m/s 760 mmHg 67%
    08:00 +28°C° 0 mm 1 m/s 761 mmHg 61%
    09:00 +31°C° 0 mm 2 m/s 761 mmHg 53%
    10:00 +35°C° 0 mm 2 m/s 761 mmHg 45%
    11:00 +38°C° 0 mm 3 m/s 761 mmHg 37%
    12:00 +36°C° 0 mm 4 m/s 760 mmHg 43%
    13:00 +35°C° 0 mm 4 m/s 759 mmHg 48%
    14:00 +33°C° 0 mm 5 m/s 758 mmHg 54%
    15:00 +33°C° 0 mm 5 m/s 758 mmHg 55%
    16:00 +33°C° 0 mm 6 m/s 757 mmHg 56%
    17:00 +33°C° 0 mm 6 m/s 757 mmHg 57%
    18:00 +30°C° 0 mm 6 m/s 757 mmHg 63%
    19:00 +29°C° 0 mm 6 m/s 758 mmHg 69%
    20:00 +28°C° 0 mm 6 m/s 758 mmHg 74%
    21:00 +27°C° 0 mm 6 m/s 758 mmHg 77%
    22:00 +27°C° 0 mm 6 m/s 759 mmHg 79%
    23:00 +27°C° 0 mm 5 m/s 759 mmHg 81%
    Arată mai mult